Tillbaka till svenska Fidonet
English   Information   Debug  
FILM   0/18
FNEWS_PUBLISH   4912
FN_SYSOP   42201
FN_SYSOP_OLD1   71952
FTP_FIDO   0/2
FTSC_PUBLIC   0/13972
FUNNY   0/4886
GENEALOGY.EUR   0/71
GET_INFO   105
GOLDED   0/408
HAM   130/16648
HOLYSMOKE   0/6791
HOT_SITES   0/1
HTMLEDIT   0/71
HUB203   466
HUB_100   264
HUB_400   39
HUMOR   0/29
IC   0/2851
INTERNET   0/424
INTERUSER   0/3
IP_CONNECT   719
JAMNNTPD   0/233
JAMTLAND   0/47
KATTY_KORNER   0/41
LAN   0/16
LINUX-USER   0/19
LINUXHELP   0/1155
LINUX   0/22300
LINUX_BBS   0/957
mail   18.68
mail_fore_ok   249
MENSA   0/341
MODERATOR   0/102
MONTE   0/992
MOSCOW_OKLAHOMA   0/1245
MUFFIN   0/783
MUSIC   0/321
N203_STAT   938
N203_SYSCHAT   313
NET203   321
NET204   69
NET_DEV   0/10
NORD.ADMIN   0/101
NORD.CHAT   0/2572
NORD.FIDONET   189
NORD.HARDWARE   0/28
NORD.KULTUR   0/114
NORD.PROG   0/32
NORD.SOFTWARE   0/88
NORD.TEKNIK   0/58
NORD   0/453
OCCULT_CHAT   0/93
OS2BBS   0/787
OS2DOSBBS   0/580
OS2HW   0/42
OS2INET   0/37
OS2LAN   0/134
OS2PROG   0/36
OS2REXX   0/113
OS2USER-L   207
OS2   0/4830
OSDEBATE   0/18996
PASCAL   0/490
PERL   0/457
PHP   0/45
POINTS   0/405
POLITICS   0/29554
POL_INC   0/14731
PSION   103
R20_ADMIN   1133
R20_AMATORRADIO   0/2
R20_BEST_OF_FIDONET   16
R20_CHAT   0/896
R20_DEPP   0/3
R20_DEV   400
R20_ECHO2   1821
R20_ECHOPRES   0/35
R20_ESTAT   0/719
R20_FIDONETPROG...
...RAM.MYPOINT
  0/2
R20_FIDONETPROGRAM   0/22
R20_FIDONET   0/248
R20_FILEFIND   0/24
R20_FILEFOUND   0/22
R20_HIFI   0/3
R20_INFO2   3713
R20_INTERNET   0/12940
R20_INTRESSE   0/60
R20_INTR_KOM   0/99
R20_KANDIDAT.CHAT   42
R20_KANDIDAT   28
R20_KOM_DEV   112
R20_KONTROLL   0/13360
R20_KORSET   0/18
R20_LOKALTRAFIK   0/24
R20_MODERATOR   0/1852
R20_NC   76
R20_NET200   245
R20_NETWORK.OTH...
...ERNETS
  0/13
R20_OPERATIVSYS...
...TEM.LINUX
  0/44
R20_PROGRAMVAROR   0/1
R20_REC2NEC   534
R20_SFOSM   0/341
R20_SF   0/108
R20_SPRAK.ENGLISH   0/1
R20_SQUISH   107
R20_TEST   2
R20_WORST_OF_FIDONET   20
RAR   0/9
RA_MULTI   106
RA_UTIL   0/162
REGCON.EUR   0/2068
REGCON   0/13
SCIENCE   0/1206
SF   0/239
SHAREWARE_SUPPORT   0/5146
SHAREWRE   0/14
SIMPSONS   0/169
STATS_OLD1   0/2539.065
STATS_OLD2   0/2530
STATS_OLD3   0/2395.095
STATS_OLD4   0/1692.25
SURVIVOR   0/495
SYSOPS_CORNER   0/3
SYSOP   0/84
TAGLINES   0/112
TEAMOS2   0/4530
TECH   0/2617
TEST.444   0/105
TRAPDOOR   0/19
TREK   0/755
TUB   0/290
UFO   0/40
UNIX   0/1316
USA_EURLINK   0/102
USR_MODEMS   0/1
VATICAN   0/2740
VIETNAM_VETS   0/14
VIRUS   0/378
VIRUS_INFO   0/201
VISUAL_BASIC   0/473
WHITEHOUSE   0/5187
WIN2000   0/101
WIN32   0/30
WIN95   0/4291
WIN95_OLD1   0/70272
WINDOWS   0/1517
WWB_SYSOP   0/419
WWB_TECH   0/810
ZCC-PUBLIC   0/1
ZEC   4

 
4DOS   0/134
ABORTION   0/7
ALASKA_CHAT   0/506
ALLFIX_FILE   0/1313
ALLFIX_FILE_OLD1   0/7997
ALT_DOS   0/152
AMATEUR_RADIO   0/1039
AMIGASALE   0/14
AMIGA   0/331
AMIGA_INT   0/1
AMIGA_PROG   0/20
AMIGA_SYSOP   0/26
ANIME   0/15
ARGUS   0/924
ASCII_ART   0/340
ASIAN_LINK   0/651
ASTRONOMY   0/417
AUDIO   0/92
AUTOMOBILE_RACING   0/105
BABYLON5   0/17862
BAG   135
BATPOWER   0/361
BBBS.ENGLISH   0/382
BBSLAW   0/109
BBS_ADS   0/5290
BBS_INTERNET   0/507
BIBLE   0/3563
BINKD   0/1119
BINKLEY   0/215
BLUEWAVE   0/2173
CABLE_MODEMS   0/25
CBM   0/46
CDRECORD   0/66
CDROM   0/20
CLASSIC_COMPUTER   0/378
COMICS   0/15
CONSPRCY   0/899
COOKING   41333
COOKING_OLD1   0/24719
COOKING_OLD2   0/40862
COOKING_OLD3   0/37489
COOKING_OLD4   0/35496
COOKING_OLD5   9370
C_ECHO   0/189
C_PLUSPLUS   0/31
DIRTY_DOZEN   0/201
DOORGAMES   0/2262
DOS_INTERNET   0/196
duplikat   6102
ECHOLIST   0/18295
EC_SUPPORT   0/318
ELECTRONICS   0/359
ELEKTRONIK.GER   1534
ENET.LINGUISTIC   0/13
ENET.POLITICS   0/4
ENET.SOFT   0/11701
ENET.SYSOP   34289
ENET.TALKS   0/32
ENGLISH_TUTOR   0/2000
EVOLUTION   0/1335
FDECHO   0/217
FDN_ANNOUNCE   0/7068
FIDONEWS   25048
FIDONEWS_OLD1   0/49742
FIDONEWS_OLD2   3969/35949
FIDONEWS_OLD3   0/30874
FIDONEWS_OLD4   0/37224
FIDO_SYSOP   12922
FIDO_UTIL   0/180
FILEFIND   0/209
FILEGATE   0/212
Möte HAM, 16648 texter
 lista första sista föregående nästa
Text 194, 736 rader
Skriven 2005-01-14 01:01:14 av Amsat List (1:323/120.0)
Ärende: 
========
SB KEPS @ AMSAT  $ORB05013.O
Orbital Elements  05013.OSCAR

HR AMSAT ORBITAL ELEMENTS FOR OSCAR SATELLITES
FROM WA5QGD FORT WORTH,TX January 13, 2005
SEND SUBSCRIBE/UNSUBSCRIBE TO majordomo@amsat.org ONLY
BID: ORB05013.O
TO ALL RADIO AMATEURS BT

Satellite: AO-07
Catalog number: 07530
Epoch time:      05012.76887767
Element set:    0384
Inclination:      101.6520 deg
RA of node:       061.9794 deg
Eccentricity:    0.0012499
Arg of perigee:   175.3289 deg
Mean anomaly:     184.7902 deg
Mean motion:   12.53570253 rev/day
Decay rate:       -2.8e-07 rev/day^2
Epoch rev:           38017
Checksum:              317

Satellite: AO-10
Catalog number: 14129
Epoch time:      05013.36000721
Element set:     138
Inclination:       26.9694 deg
RA of node:        51.8992 deg
Eccentricity:    0.6031757
Arg of perigee:   156.7258 deg
Mean anomaly:     249.3207 deg
Mean motion:    2.05867553 rev/day
Decay rate:       -1.0e-07 rev/day^2
Epoch rev:           16234
Checksum:              288

Satellite: UO-11
Catalog number: 14781
Epoch time:      05013.30176985
Element set:     685
Inclination:       98.1929 deg
RA of node:         7.8297 deg
Eccentricity:    0.0010082
Arg of perigee:   132.8262 deg
Mean anomaly:     227.3791 deg
Mean motion:   14.79129358 rev/day
Decay rate:       3.98e-06 rev/day^2
Epoch rev:           11890
Checksum:              325

Satellite: RS-10/11
Catalog number: 18129
Epoch time:      05013.21147660
Element set:     588
Inclination:       82.9247 deg
RA of node:       352.7677 deg
Eccentricity:    0.0013584
Arg of perigee:    95.7791 deg
Mean anomaly:     264.4913 deg
Mean motion:   13.72752316 rev/day
Decay rate:        5.8e-07 rev/day^2
Epoch rev:           87981
Checksum:              332

Satellite: FO-20
Catalog number: 20480
Epoch time:      05013.63603518
Element set:     795
Inclination:       99.0145 deg
RA of node:       217.2449 deg
Eccentricity:    0.0539842
Arg of perigee:   229.9131 deg
Mean anomaly:     125.3458 deg
Mean motion:   12.83344130 rev/day
Decay rate:       -4.7e-07 rev/day^2
Epoch rev:           69967
Checksum:              310

Satellite: RS-12/13
Catalog number: 21089
Epoch time:      05013.54764660
Element set:     812
Inclination:       82.9220 deg
RA of node:        25.6515 deg
Eccentricity:    0.0030116
Arg of perigee:   147.3978 deg
Mean anomaly:     212.9048 deg
Mean motion:   13.74446091 rev/day
Decay rate:        5.1e-07 rev/day^2
Epoch rev:           69925
Checksum:              295

Satellite: RS-15
Catalog number: 23439
Epoch time:      05012.92800379
Element set:    0834
Inclination:      064.8196 deg
RA of node:       358.6444 deg
Eccentricity:    0.0159477
Arg of perigee:   343.5131 deg
Mean anomaly:     016.0646 deg
Mean motion:   11.27550866 rev/day
Decay rate:       -3.9e-07 rev/day^2
Epoch rev:           41388
Checksum:              321

Satellite: FO-29
Catalog number: 24278
Epoch time:      05013.05282987
Element set:     871
Inclination:       98.5710 deg
RA of node:        83.4105 deg
Eccentricity:    0.0350337
Arg of perigee:   218.1334 deg
Mean anomaly:     139.4542 deg
Mean motion:   13.52907265 rev/day
Decay rate:       -3.6e-07 rev/day^2
Epoch rev:           41521
Checksum:              296

Satellite: SO-33
Catalog number: 25509
Epoch time:      05013.47307874
Element set:     277
Inclination:       31.4301 deg
RA of node:       187.0595 deg
Eccentricity:    0.0356311
Arg of perigee:   253.8096 deg
Mean anomaly:     102.3089 deg
Mean motion:   14.27956059 rev/day
Decay rate:       1.75e-06 rev/day^2
Epoch rev:           32469
Checksum:              309

Satellite: AO-40
Catalog number: 26609
Epoch time:      05012.06470127
Element set:     484
Inclination:        8.8684 deg
RA of node:       325.7272 deg
Eccentricity:    0.7962662
Arg of perigee:   356.8727 deg
Mean anomaly:     359.8525 deg
Mean motion:    1.25585978 rev/day
Decay rate:      -2.50e-06 rev/day^2
Epoch rev:            1929
Checksum:              342

/EX
SB KEPS @ AMSAT  $ORB05013.D
Orbital Elements  05013.MICROS

HR AMSAT ORBITAL ELEMENTS FOR THE MICROSATS
FROM WA5QGD FORT WORTH,TX January 13, 2005
SEND SUBSCRIBE/UNSUBSCRIBE TO majordomo@amsat.org ONLY
BID: ORB05013.D
TO ALL RADIO AMATEURS BT

Satellite: UO-14
Catalog number: 20437
Epoch time:      05013.08123835
Element set:     686
Inclination:       98.1970 deg
RA of node:        31.4447 deg
Eccentricity:    0.0009975
Arg of perigee:   299.3918 deg
Mean anomaly:      60.6283 deg
Mean motion:   14.31392847 rev/day
Decay rate:        3.1e-07 rev/day^2
Epoch rev:           78184
Checksum:              318

Satellite: AO-16
Catalog number: 20439
Epoch time:      05013.11422949
Element set:     372
Inclination:       98.2235 deg
RA of node:        46.5229 deg
Eccentricity:    0.0010406
Arg of perigee:   308.2898 deg
Mean anomaly:      51.7355 deg
Mean motion:   14.31653529 rev/day
Decay rate:        3.8e-07 rev/day^2
Epoch rev:           78190
Checksum:              296

Satellite: WO-18
Catalog number: 20441
Epoch time:      05013.75590568
Element set:     564
Inclination:       98.2358 deg
RA of node:        51.3465 deg
Eccentricity:    0.0010984
Arg of perigee:   306.3071 deg
Mean anomaly:      53.7101 deg
Mean motion:   14.31728462 rev/day
Decay rate:        5.1e-07 rev/day^2
Epoch rev:           78205
Checksum:              284

Satellite: LO-19
Catalog number: 20442
Epoch time:      05013.16354259
Element set:     300
Inclination:       98.2466 deg
RA of node:        55.0525 deg
Eccentricity:    0.0011359
Arg of perigee:   308.0033 deg
Mean anomaly:      52.0130 deg
Mean motion:   14.31900138 rev/day
Decay rate:        4.8e-07 rev/day^2
Epoch rev:           78203
Checksum:              246

